"Pseudo-MPEC" for A10c3KV

Created 2019 Feb 19 11:18:06 UT using Find_Orb

Click here for an explanation of pseudo-MPECs

 
 Astrometry: 
     A10c3KV  C2019 01 14N,e!@cRo7l\DTNgAstrometry(we^p^-EW[hhP[Yi0?Te_q=.cdjT05
     A10c3KV  C2019 01 14:_@Rl?/M.wXC0G-OVMhMjwj.AR'n(dtA+L3J\:23r0Dt=M*j15mwT05
     A10c3KV  C2019 01 14!/[`[Heqcw+5a)cY0m#%ls[j5y#=2xaHGsdWXS?a=xLd!RiHL$8BT05
     A10c3KV  C2019 01 14)06+1%Ot](9yEkKdF#Sn)X`KKUFvfBZP2e;ODj#\sp[ra`\a=j0GT05
     A10c3KV  C2019 01 14$FI^P[#ldH6g*/]?\x%:BbJCdNJF.wJ.b^[e*FgAgq*Kjf#o+=lGT05
     A10c3KV  C2019 01 14Xj\fjDJc/QPmZrGGvp,mbSi,?9yQqj3]41anOptZB6[:]\jTh^puT05
     A10c3KV  C2019 01 147F4t4y5)N,W.`yyA:\W*6yB-uIcji?je$TTXj],Pno6nn2bPiFAiT05
     A10c3KV  C2019 01 14(eRbP1=*i-AO76DM^l9Fw)lL5j(ERd0^L;oiy^PA4g12oI%.ok;tT05
     A10c3KV  C2019 02 059w*xIyGmx,Cste*,4Sevgh;_I5G\/:Ym8\l`OjFMd@lHVl23D*O*T08
     A10c3KV  C2019 02 05N89@RheRo)La+RA;xxNfBX;f31/o12C#KdUm)-c2Y$qe3dxaPtsET08
     A10c3KV  C2019 02 05Q[KT`icSrJp^]O/IOBg']q!1pVp(C?0NT5):$FHPqhTGwWvtD#1oT08
     A10c3KV  C2019 02 05Xf2aAGj5%j]/aVQ#(MTr14Aj0-#U8jAy1hCFG4^VO:aEqisKFk]4T08
     A10c3KV  C2019 02 06(8IS#kQ#8?aHnU/:My3REXiYDqWX%2qJ@NoqR.6mV*#@x*s1\iLQJ04
     A10c3KV  C2019 02 06`B_db4Z3@h#gx-jr,tkq1/;]:)ZIii7OeP:'tn8qn%JgeyX\0BQGJ04
     A10c3KV  C2019 02 06PyD'mKEg@^]kQpB5AwL+redacted;?#RU^g;alk`6rS;rt50W'(/J04
     A10c3KV  C2019 02 07mQwJ^SbKHJq90af#8llHJMP3%:FsmxJq\WZa%*Ysn@_fwwYDy]q)J04
     A10c3KV  C2019 02 077w\bor?OYyYlr'gWnd.Mba0ZjZdsx;W689Ra1K6EJI7BQ$SyC;L+J04
     A10c3KV  C2019 02 07@yw87kDSVpi!@mm=xqpw:fIh9?[cIU?RXnwVGTLj/G]d[N4XB[BCJ04
     A10c3KV  C2019 02 07Wh?i\=y]KLMZM177Fe%%-Z:*#il5Z1HkSg4i*4L/`Tj3e[$eF]D-474
     A10c3KV  C2019 02 07/bI1TyhF]Lm7OEr-1rkUYbnq7v._W294e[ZH^`og,*fX7Q*(-dEU474
     A10c3KV  C2019 02 07!n*5YeI\#/Q$P8b=JyHU\Us'e.==+y.,Hlu[WDq5.#m^;UUeT$tj474
     A10c3KV  C2019 02 07oaB#GjoC%'AQpOTchoC4L!c=i0hg@W7[Sn(w%EGSov-XdVvbEc.?474
     A10c3KV KC2019 02 071sLYIw[%v(3k%@ICQy+vI*uU]);0nh\Nj_KeH.x9gr=1#pyrs]nOK88
     A10c3KV  C2019 02 07CR!hlLnWN/hD[+U_!%^NyBBN\'`7w34*hvop-CM1qwp\L+A^=vfyJ04
     A10c3KV  C2019 02 07_][5RQBuX^a)51cL]IG]-dYt=7!-F;e_xFt*RdTAnCRWo6MhZ-bwJ04
     A10c3KV  C2019 02 07)1p#;sug'[$Ilt_Mj2;KsWHqta;R1x=[U38N.%/%:4N,b33,yNWMJ04
     A10c3KV KC2019 02 07f,l)AHYv%^`*RN29jyLvxUTK:hJtc`o0CjX`J/?bI#;w5Tg4Z=f5K88
     A10c3KV KC2019 02 0840KDSpWmt@f\iiQf$_-8@$%UPq+ig/F!sKy'uVtov;,?*]_cwlU=I47
     A10c3KV KC2019 02 08DLAj';p'Bk7p;heG-p^m3[9hRd#%ebk0ifTp'$w#p5N1Wm2d=p1PI47
     A10c3KV  C2019 02 08.18946 08 38 56.55 -22 57 09.5    ~2873 18.4 GVNEOCPI52
     A10c3KV  C2019 02 08.20043 08 38 56.37 -22 57 07.6    ~2873 19.1 GVNEOCPI52
     A10c3KV  C2019 02 08.25712 08 38 55.25 -22 56 59.7    ~2873 19.3 GVNEOCPI52
     A10c3KV KC2019 02 08cU^clickT?MAsxxuZHdb3AUE`s;q#GvB,frou1$:8yg6U?25APQTH36
     A10c3KV KC2019 02 0877p44T,LO=PCVOdl**XtKc%Z5f3U6l8-Zc425=P?:`n%RS/e'4N,H36
     A10c3KV  C2019 02 08.27102 08 38 54.97 -22 56 58.6    ~2873 18.6 GVNEOCPI52
     A10c3KV KC2019 02 08rd?YEyw322QRkJ.-Ys4H!uHRjO%UI8TH5A4HLPTrRTBaV4P$6%tTH36
     A10c3KV KC2019 02 08ZDb\4)q60Gj(TxJ;nOE*e$%t,,s=lMwji3$L*:\,^d`75!+o**J/595
     A10c3KV KC2019 02 081D/!gBZ9'Nv3g`sXON=EXHy\1XZwwlbuUcbQwXLRE98qhF4g%6f;595
     A10c3KV KC2019 02 08M]I\14xgl$?8=20hTWA6m-QH+M*G1=Jn=[(o#Nsvfj.QXb.5)x\jL01
     A10c3KV KC2019 02 08Xr(nj=P_t$3qEWYv6B^%%\aJeEEvZ!T4s6(c.X#(\jy'GYW]U;4Q595
     A10c3KV KC2019 02 087_K2lSveS)!C\)jo:(JVD9-Vw$Y5Lpt(A-tN]u9jX:3:wW08_4H^L01
     A10c3KV  C2019 02 08::wiBPpFgk_WISj+!(C;kSDGIht=\q`$i6u5#@N4D[XfZDcu`.N*C95
     A10c3KV KC2019 02 084telcVAR3bH`aZ(:Fki`qEcFRno1(iQO,ap^t2vrWNbKtS;5-fZJC95
     A10c3KV KC2019 02 09OP26!Kd3ia`Irh1w=?8RLY2wlxp(vq.%uo#FZjiu*9Gs$D6C7hppE23
     A10c3KV KC2019 02 09OhS.j($G(88q3vd4oiX_2oM\?'][ZTcC3K3oO[wAMH.I3B?VUXBJE23
     A10c3KV 1C2019 02 09!q_:Lj'usr;iu#m.Ff!D`%PsIr6)MaBlUI6\D/S=$Bl(5(!r)F2bQ62
     A10c3KV KC2019 02 09P]kv8:2N_u'VT$H6mIN!o`=yl)VhR,KD(=^nlwiM-CQ/3EeQH9,qE23
     A10c3KV 1C2019 02 09[`2`*n$BJt,w'))7=(VHPp/Gp3q@xwd8d3-Of'5=bsSj(0lX!YPhQ62
     A10c3KV KC2019 02 09m(TZx;0By5^herer68bUQ(0dXy;JbxnQFP+(jFBj6[bLM%jO4u1DL27
     A10c3KV KC2019 02 09T7Fv)wq)s;?T#k'\60p1A;qd8'Xx[Ni[Ne;Wbfa6'D_rLAb\8sX-L27
     A10c3KV KC2019 02 09-(@BW`7h$O8+0]D(cfjyX=W?brhTJO7DqH*c6-gfELP\q2E7VEIsL27
     A10c3KV 9C2019 02 10ed./YJmB`/\V\-h\xD[Gr7C.n]fYt[eT_XvEY`3v\o)%+'#f(u$KG40
     A10c3KV 9C2019 02 10D@ORYbO$A5^.1uWncO#O1y-6\Yx,c+8l]qT2PO!4]fco4cX=A-NtG40
     A10c3KV 9C2019 02 11mZH+L_W[L-dMun_q(OC6Nq+m(Z0E'jGfp,w+X^p`ZrTsi6OrjM.?G40
     A10c3KV  C2019 02 11.24363 08 37 59.69 -22 50 22.3    ~2B7I 18.4 GVNEOCPI52
     A10c3KV  C2019 02 11.25510 08 37 59.45 -22 50 20.3    ~2B7I 18.0 GVNEOCPI52
     A10c3KV  C2019 02 11.26547 08 37 59.26 -22 50 19.2    ~2B7I 17.9 GVNEOCPI52
     A10c3KV  C2019 02 11.28026 08 37 59.01 -22 50 16.9    ~2B7I 18.4 GVNEOCPI52
     A10c3KV "C2019 02 11K/@LOjYMvk1lQE_r-PH%@ug9?5%F=UKOx0@W]pHHTnZmfgC4FcgWG40
     A10c3KV "C2019 02 11TUvRepcH@fp\tg+)es))]J:t'Q#x1WNBD[DdG:Fu3cE(k(1(R%ZWG40
     A10c3KV "C2019 02 11ci[D3yF'EA:a^2`fXBQ:NW=bhPxwuE4^ho]Un]7mX+.=rH]PDijrG40
     A10c3KV  C2019 02 12?33-L!/1JlHq$S%A%'YUKwV;XxSF=AYJm4VE*G!UZZa[6f7jcm+vW87
     A10c3KV  C2019 02 12fM5F)5P+\Q17egrbl9R/`7+QP'm0(Y7r%t-/YC:k[%2-_5oQN!;5W87
     A10c3KV  C2019 02 12S0GE\M?i6y3QDH0VUpk$!t%/q=):E=H/emll25(e3/$D@Y:1];+XW87
     A10c3KV  C2019 02 12ov]ZC)0?cuuv_@%3Z6KPvgbD!7B*elZ$,-4%pcTFHTAMBUm+nZm8W87
     A10c3KV KC2019 02 12T-XfnFEdye2.,:P;2CGZ#:LmSa3VBh\*Hx!mqeG\QUBE_]1(^k_SE94
     A10c3KV KC2019 02 12Vby:=G8o/]pEhKAhdYSlqy+Jq80*Ys:urT8sG0B0m806=QX'd1M6E94
     A10c3KV KC2019 02 122*Dp[C(Of8vXHfvTDWrV+.@IHit4t:TforhOr1W!QpR0r,L==yMHE94
     A10c3KV KC2019 02 12P)*Hx^6M0+2SUc'6I.Sg-inN0KC@U'JX%bnRrJ7^$FA(9E6F2w'UE94
     A10c3KV KC2019 02 12%/^^q,kDW(([)_V1R!!RgxYCi4b:gn@FW$_)0PMg2/oHY4'-YfEI587
     A10c3KV KC2019 02 12v3a[q1C_xR;mUtN///ei)0l8q/4'l0nSldJW-cU9%InSwX,t'O#7587
     A10c3KV  C2019 02 13B:8u`=ccMVBv%vM]83W@c51**N54rW(0-hf-+)JX:m.?i5V[Ig!fT08
     A10c3KV  C2019 02 13u4qWxXE?e*i=\K5%;E;3*i].PyH%gs\?Q[^pf;_)1v.GU#FpAYg%T08
     A10c3KV  C2019 02 13Yj/o0`QHVqcoukbv!fBqa8A%c/X@Ek1.aAnli$cSs=(?Y$@yFka^T08
     A10c3KV  C2019 02 136+RxFMl8=JUJwr,,06+0\F3@(nuM.=no;:Ba-91b=/5I%u3pD,'1T08
     A10c3KV KC2019 02 15=T\fpPcW]VCtRiw1d1'jUgKfm5EngfZ#R*TobkL_Ek4wx.^CcKn)I47
     A10c3KV KC2019 02 15yDN,((!DM')s'ta%w`35)Q`Q4%5qmxhFvR%x.I%5SR=M:v$T/9]:I47
     A10c3KV KC2019 02 15BMR^YW6A[p14HN;$tpg3S(gBe!Ee'!..TFBe7=F-N4/V*LZ$BH7PI47
     A10c3KV KC2019 02 17Z;MB$[iFFZcGgl[PHe)iyQ[O[:U*Ndi-amh*mid16+#K[%7^.Z79L29
     A10c3KV KC2019 02 177!w[/^(QhP@RaV]\rCs0,-GEWgt@,2r)G[g)2/Y-at=x8yK6L[BZL29
     A10c3KV KC2019 02 17AC9_Dt'N`6-mR\1*N0Ud]7`qt(bxwM?yK2_o`@CGV+n.gYmojHZ'L29
     A10c3KV KC2019 02 18fA+SlrlbX2_YCjN+1-x[QGo2:id(lXnFTSSFKFb*2HcUlkaXy_9*L29
     A10c3KV KC2019 02 18]C:Qiexplanationn*wn0CWnU%1eq#LOVeB`PW[(9rKSIo!-loqiL29

Station data:
(474) Mount John Observatory, Lake Tekapo  (S43.987388 E170.464960)  New
   Zealand.  Observers A. C. Gilmore, P. M. Kilmartin. Measurer P. M.
   Kilmartin. 1.0-m f/7.7 reflector + CCD.
(587) Sormano  (N45.882949 E9.229180)  Italy.  Observers F. Manca, A. Testa.
   Measurer F. Manca. 0.5-m + CCD.
(595) Farra d'Isonzo  (N45.915734 E13.525780)  Italy.  Observers L.
   Bittesini, F. Fabris, E. Pettarin, F. Piani. Measurer E. Pettarin. 0.30-m
   f/4.5 reflector + CCD.
(C95) SATINO Remote Observatory, Haute Provence  (N43.932042 E5.712390)
   France.
(E23) Arcadia  (S33.621199 E151.071190)  Australia/NSW.
(E94) Gisborne (Possum Observatory)  (S38.629922 E177.883310)  New Zealand.
(G40) Slooh.com Canary Islands Observatory  (N28.299720 W16.508260)  Canary
   Islands (Spain).  Observers G. Gašparović, Y. Chen. 0.43-m f/6.8 Corrected
   Dall-Kirkham + CCD.
(H36) Sandlot Observatory, Scranton  (N38.797693 W95.706400)  US/Kansas.
   Observer G. Hug. 0.56-m reflector + CCD.
(I47) Pierre Auger Observatory, Malargüe  (S35.495442 W69.449700)  Argentina.
(I52) Steward Observatory, Mt. Lemmon Station  (N32.442547 W110.788920)
   US/Arizona.  Observers B. M. Africano, E. J. Christensen, G. A. Farneth,
   D. C. Fuls, A. R. Gibbs, A. D. Grauer, H. Groeller, J. A. Johnson, R. A.
   Kowalski, S. M. Larson, G. J. Leonard, R. L. Seaman, F. C. Shelly. 1.0-m
   reflector + CCD.
(J04) ESA Optical Ground Station, Tenerife  (N28.300924 W16.511830)  Canary
   Islands (Spain).  Observer D. Abreu. Measurers M. Micheli, D. Koschny, E.
   Schwab, M. Busch, A. Knöfel. 1.0-m f/4.4 reflector + CCD.
(K88) GINOP-KHK, Piszkéstető  (N47.917622 E19.893600)  Hungary.  Observer K.
   Sárneczky. 0.60-m Schmidt + CCD.
(L01) Višnjan Observatory, Tičan  (N45.290900 E13.749300)  Croatia.
   Observers K. Korlević, E. Pettarin. Measurer E. Pettarin. 1.0-m f/2.9
   reflector + CCD.
(L27) 29PREMOTE Observatory, Dauban  (N43.999847 E5.647040)  France.
(L29) Drebach-South Observatory, Windhoek  (S23.460102 E18.016900)  Namibia.
(Q62) iTelescope Observatory, Siding Spring  (S31.273289 E149.064420)
   Australia/NSW. 0.50-m f/6.8 astrograph + CCD + focal reducer, 0.70-m f/6.6
   astrograph + CCD.
(T05) ATLAS-HKO, Haleakala  (N20.707573 W156.257010)  US/Hawaii.  Observers
   L. Denneau, A. Heinze, H. Weiland, J. Tonry, H. Flewelling, A.
   Fitzsimmons, D. Young. Measurers L. Denneau, A. Heinze, J. Tonry. 0.5-m
   f/2.0 Schmidt + CCD.
(T08) ATLAS-MLO, Mauna Loa  (N19.535772 W155.576400)  US/Hawaii.
(W87) Cerro Tololo-LCO C  (S30.167456 W70.804680)  Chile.

Orbital elements:  A10c3KV
   Perihelion 2020 May 6.533517 +/- 1.88 TT = 12:48:15 (JD 2458976.033517)
Epoch 2019 Feb 18.0 TT = JDT 2458532.5                        AutoNEOCP
M 359.99025867 +/- 0.007            (J2000 ecliptic)
n   0.00002196 +/- 1.28e-5          Peri.  319.28776 +/- 0.20
a1262.82084 +/- 665                 Node   212.39948 +/- 0.018
e   0.9947919 +/- 0.00216           Incl.   36.01268 +/- 0.0031
P  44875                   H  9.9   G  0.15   U  5.2  
q 6.57684423 +/- 0.00738    Q 2519.06483 +/- 590
